CAPE
1232 1306 1069 1019 787 767 805 828 662 637 570 331 306 347 408 595 665 653 575 508 441 418 375 479 506 612 661 758 843 239 407 1291 1274 1309 1373 1397 1246 1350 1308 1219 1272 1206
962 845 1247 995 826 824 836 864 725 486 456 390 448 421 445 642 687 583 601 548 346 248 202 420 402 415 372 281 585 400 353 861 780 842 1313 1499 1349 1466 1515 1396 1596 1604
730 815 1313 1078 939 1057 878 791 693 521 447 469 494 512 425 665 679 552 542 410 236 103 106 210 310 232 187 232 370 219 281 383 329 376 297 532 855 1150 1248 1440 1555 1630
504 772 1455 1531 1116 1056 912 870 596 553 523 631 531 376 395 617 648 624 582 307 188 63 28 90 168 137 71 87 189 157 142 99 82 146 182 235 360 591 925 1343 1436 1414
804 1213 1447 1600 1038 885 799 765 724 679 676 531 628 456 286 448 558 482 420 288 136 32 4 13 89 184 75 22 55 75 8 0 61 34 47 124 270 640 870 1132 1357 1557
893 1167 1421 1378 1108 976 758 688 596 659 752 795 630 340 362 346 362 353 356 280 135 28 0 0 15 92 27 4 0 0 0 0 0 0 0 6 56 234 515 1156 1318 1379
800 1050 1345 1020 1032 888 671 686 592 573 720 704 506 427 382 369 374 362 254 240 92 2 0 0 4 95 2 0 0 0 0 0 0 0 0 0 2 157 222 549 348 520
1137 1308 1393 1088 1213 875 743 674 650 626 748 606 483 438 347 266 245 236 205 179 74 0 0 0 0 38 4 0 0 0 0 0 0 0 0 0 0 3 110 417 279 134
1389 1456 1367 1382 1264 948 734 588 606 570 551 440 342 238 208 210 182 144 86 96 18 0 0 0 0 8 5 0 0 0 0 0 0 0 0 0 0 0 1 99 196 264
1413 1336 1420 1408 1271 841 556 557 564 532 457 392 161 128 162 138 85 34 34 37 1 0 0 0 0 0 1 0 0 0 0 0 0 0 0 0 0 0 0 3 55 118
1272 1281 1429 1263 1203 871 664 616 641 528 485 353 189 108 97 76 21 24 30 7 0 0 0 0 0 0 0 0 0 0 0 0 0 0 0 0 0 0 0 0 2 16
558 962 1548 1459 1238 912 915 718 682 551 515 405 174 77 42 7 10 3 0 0 0 0 0 0 0 0 0 0 0 0 0 0 0 0 0 0 0 0 0 7 9 0
324 394 930 1207 1123 973 899 680 591 566 466 352 236 88 25 6 0 0 0 0 0 0 0 0 0 0 0 0 0 0 0 0 0 0 0 0 0 0 0 0 0 9
295 416 444 902 1241 941 707 580 561 492 430 364 232 78 2 0 0 0 0 0 0 0 0 0 0 0 0 0 0 0 0 0 1 3 0 0 0 0 1 19 22 6
342 415 196 158 405 641 545 486 417 374 289 245 197 106 27 0 0 0 0 0 0 4 0 0 0 0 0 0 2 0 1 2 1 0 0 0 0 2 4 20 30 91
165 168 114 80 234 328 316 299 283 239 154 84 35 13 16 19 17 0 0 0 0 1 5 6 20 259 0 0 4 115 4 2 19 31 3 2 4 12 33 20 30 82
145 265 94 85 55 27 63 92 157 356 309 202 107 84 74 5 16 8 32 0 0 0 6 185 0 0 0 0 0 0 430 129 35 17 16 6 10 41 78 80 80 46
55 155 248 171 13 32 0 0 0 21 173 322 211 118 103 110 61 30 32 30 13 73 248 2 0 0 0 0 0 0 0 109 170 117 125 52 71 103 118 146 135 123
5 1 7 24 21 0 2 2 5 22 64 110 60 12 32 36 18 22 34 127 79 4 0 0 0 0 0 0 0 0 0 41 85 221 206 121 125 162 135 119 197 620
1 5 13 0 1 1 9 1 0 0 0 4 5 0 1 0 0 0 22 71 15 0 0 0 0 0 0 0 0 0 0 0 214 379 416 328 361 442 576 578 647 792
0 0 0 1 0 0 1 5 0 0 0 1 2 2 2 4 1 1 25 33 1 0 0 0 0 0 0 0 0 0 0 4 797 934 647 604 647 787 943 848 920 942
0 0 0 1 0 0 3 3 2 2 3 3 2 1 3 6 15 30 46 50 31 0 0 0 0 0 0 0 0 0 0 264 931 922 1034 1001 1133 1193 1081 969 1024 1044
0 1 0 2 2 0 0 1 4 0 0 8 24 31 28 29 34 38 50 59 69 70 74 62 0 0 0 0 0 0 0 359 484 678 816 1038 1128 1328 1198 1062 1161 1126
0 0 4 0 3 3 2 4 5 3 8 7 13 16 20 26 30 40 43 50 65 85 80 78 66 26 0 0 0 0 0 3 18 155 416 536 777 851 643 572 608 318
6 3 0 0 1 1 0 0 1 0 1 0 0 2 0 12 16 26 36 40 28 26 43 0 0 24 0 0 0 0 0 0 0 0 0 40 7 49 154 268 557 424
1 0 0 0 2 9 4 4 9 9 7 2 2 2 1 2 0 1 0 0 1 5 2 0 0 0 0 0 1 1 0 0 0 0 0 0 0 0 0 0 12 166
Wind_Speed
27 21 22 22 21 21 18 17 19 20 19 20 19 18 17 18 18 19 21 22 23 24 24 22 21 21 21 20 19 19 20 21 19 18 18 15 14 12 9 7 8 8
29 20 16 18 19 18 17 18 20 21 21 22 20 19 18 19 18 19 21 23 24 24 23 22 21 22 21 21 20 19 19 19 19 18 17 16 15 13 10 10 9 9
25 15 10 15 17 17 17 19 20 21 23 22 21 19 19 19 18 19 20 20 22 22 21 20 21 22 22 22 20 20 19 19 19 18 18 17 16 15 13 10 11 11
21 12 12 15 16 17 17 18 20 21 21 21 19 19 19 19 18 17 17 18 19 nan nan nan 20 21 nan nan 20 20 19 nan nan 16 16 16 16 15 13 11 12 12
21 13 11 13 15 17 16 17 19 20 20 19 20 20 20 19 16 15 16 17 17 nan nan nan nan 21 nan nan nan nan nan nan nan nan nan 17 16 15 13 13 13 15
23 17 12 13 15 17 16 16 17 18 19 20 20 20 20 18 15 15 16 16 17 nan nan nan nan nan nan nan nan nan nan nan nan nan nan nan nan 14 15 15 16 17
24 19 15 15 15 14 14 14 15 15 17 19 20 18 19 18 17 17 17 16 nan nan nan nan nan nan nan nan nan nan nan nan nan nan nan nan nan 16 16 18 19 20
22 20 20 17 14 12 12 14 13 14 17 18 16 18 18 19 19 17 16 16 nan nan nan nan nan nan nan nan nan nan nan nan nan nan nan nan nan nan 18 18 19 21
20 20 20 18 15 12 13 14 14 14 16 17 17 18 19 18 17 16 nan nan nan nan nan nan nan nan nan nan nan nan nan nan nan nan nan nan nan nan nan nan 21 22
21 21 21 20 16 14 14 16 15 15 16 17 18 19 20 19 nan nan nan nan nan nan nan nan nan nan nan nan nan nan nan nan nan nan nan nan nan nan nan nan nan 23
25 23 22 20 18 16 16 16 16 15 16 19 21 22 nan nan nan nan nan nan nan nan nan nan nan nan nan nan nan nan nan nan nan nan nan nan nan nan nan nan nan nan
32 25 20 19 18 18 18 17 17 16 18 21 22 nan nan nan nan nan nan nan nan nan nan nan nan nan nan nan nan nan nan nan nan nan nan nan nan nan nan nan nan nan
24 23 18 18 18 19 19 17 17 17 18 21 23 nan nan nan nan nan nan nan nan nan nan nan nan nan nan nan nan nan nan nan nan nan nan nan nan nan nan nan nan nan
25 26 24 21 20 20 19 18 19 19 21 23 24 nan nan nan nan nan nan nan nan nan nan nan nan nan nan nan nan nan nan nan nan nan nan nan nan nan nan nan nan nan
26 26 28 28 23 23 23 22 22 22 22 23 25 26 nan nan nan nan nan nan nan nan nan nan nan nan nan nan nan nan nan nan nan nan nan nan nan nan nan nan nan nan
24 26 29 nan 27 27 29 29 28 27 26 nan nan nan nan nan nan nan nan nan nan nan nan nan nan 25 nan nan nan 20 nan nan nan nan nan nan nan nan nan nan nan nan
27 29 nan nan nan nan nan nan 32 29 29 30 29 nan nan nan nan nan nan nan nan nan nan 29 nan nan nan nan nan nan 19 15 nan nan nan nan nan nan nan nan nan nan
nan 31 32 32 nan nan nan nan nan nan 34 34 33 32 31 31 nan nan nan nan nan nan 38 nan nan nan nan nan nan nan nan 18 16 18 20 nan nan 22 23 24 24 23
nan nan nan nan nan nan nan nan nan nan nan 37 nan nan nan nan nan nan nan 39 nan nan nan nan nan nan nan nan nan nan nan nan nan 19 21 22 24 24 25 26 25 26
nan nan nan nan nan nan nan nan nan nan nan nan nan nan nan nan nan nan nan nan nan nan nan nan nan nan nan nan nan nan nan nan 20 21 22 23 24 25 26 27 28 27
nan nan nan nan nan nan nan nan nan nan nan nan nan nan nan nan nan nan nan nan nan nan nan nan nan nan nan nan nan nan nan nan 22 24 23 24 25 26 27 27 28 29
nan nan nan nan nan nan nan nan nan nan nan nan nan nan nan nan nan nan nan nan nan nan nan nan nan nan nan nan nan nan nan 22 26 25 26 26 27 27 27 28 28 29
nan nan nan nan nan nan nan nan nan nan nan nan nan nan nan nan nan nan nan nan nan nan nan nan nan nan nan nan nan nan nan 28 27 26 28 27 27 28 28 29 30 31
nan nan nan nan nan nan nan nan nan nan nan nan nan nan nan nan nan nan nan nan nan nan nan nan nan nan nan nan nan nan nan nan nan 31 31 31 31 32 31 31 35 42
nan nan nan nan nan nan nan nan nan nan nan nan nan nan nan nan nan nan nan nan nan nan nan nan nan nan nan nan nan nan nan nan nan nan nan nan nan nan 36 36 38 44
nan nan nan nan nan nan nan nan nan nan nan nan nan nan nan nan nan nan nan nan nan nan nan nan nan nan nan nan nan nan nan nan nan nan nan nan nan nan nan nan nan 43
Wind_Direction
231 248 261 263 260 263 262 259 261 265 265 268 269 267 267 263 265 264 264 265 267 267 265 264 264 265 265 264 262 263 269 272 276 276 277 276 269 272 276 285 284 285
239 209 253 260 256 260 260 262 265 267 267 268 264 263 261 260 263 265 266 267 267 264 263 262 263 264 264 263 262 264 269 272 275 273 272 272 266 270 273 283 289 277
241 224 270 272 257 259 260 261 264 265 266 264 261 259 258 257 260 264 265 266 263 260 259 260 262 262 260 260 262 264 268 272 274 273 268 263 261 264 268 278 278 279
240 249 285 278 259 259 257 258 262 263 265 262 260 259 259 257 259 262 262 261 258 nan nan nan 264 263 nan nan 262 264 267 nan nan 271 266 261 259 259 261 264 267 270
250 250 280 276 263 259 256 259 264 265 267 265 264 265 265 263 259 259 259 259 257 nan nan nan nan 264 nan nan nan nan nan nan nan nan nan 259 256 253 254 258 264 264
247 247 275 283 268 262 260 264 268 269 265 265 269 268 265 263 257 261 267 266 264 nan nan nan nan nan nan nan nan nan nan nan nan nan nan nan nan 254 255 256 261 264
249 251 279 287 271 268 266 267 267 267 262 262 265 263 260 258 259 268 275 273 nan nan nan nan nan nan nan nan nan nan nan nan nan nan nan nan nan 255 256 257 259 261
254 258 277 277 263 264 266 267 264 261 262 263 260 255 256 257 262 268 272 275 nan nan nan nan nan nan nan nan nan nan nan nan nan nan nan nan nan nan 265 261 264 267
255 263 271 265 253 254 264 264 260 258 259 259 254 253 256 256 258 264 nan nan nan nan nan nan nan nan nan nan nan nan nan nan nan nan nan nan nan nan nan nan 271 270
254 260 261 252 247 246 255 254 252 251 253 255 252 251 256 253 nan nan nan nan nan nan nan nan nan nan nan nan nan nan nan nan nan nan nan nan nan nan nan nan nan 273
244 248 252 248 248 245 250 249 250 249 250 252 249 249 nan nan nan nan nan nan nan nan nan nan nan nan nan nan nan nan nan nan nan nan nan nan nan nan nan nan nan nan
238 229 242 250 252 251 253 254 254 252 250 249 250 nan nan nan nan nan nan nan nan nan nan nan nan nan nan nan nan nan nan nan nan nan nan nan nan nan nan nan nan nan
260 249 234 251 255 256 256 260 259 255 251 248 248 nan nan nan nan nan nan nan nan nan nan nan nan nan nan nan nan nan nan nan nan nan nan nan nan nan nan nan nan nan
245 239 239 243 254 254 258 261 260 257 249 247 248 nan nan nan nan nan nan nan nan nan nan nan nan nan nan nan nan nan nan nan nan nan nan nan nan nan nan nan nan nan
253 243 239 242 240 249 252 256 258 256 255 252 250 250 nan nan nan nan nan nan nan nan nan nan nan nan nan nan nan nan nan nan nan nan nan nan nan nan nan nan nan nan
258 250 245 nan 247 246 248 252 255 256 256 nan nan nan nan nan nan nan nan nan nan nan nan nan nan 258 nan nan nan 250 nan nan nan nan nan nan nan nan nan nan nan nan
261 259 nan nan nan nan nan nan 257 255 255 254 252 nan nan nan nan nan nan nan nan nan nan 261 nan nan nan nan nan nan 225 248 nan nan nan nan nan nan nan nan nan nan
nan 251 250 251 nan nan nan nan nan nan 252 251 248 247 249 252 nan nan nan nan nan nan 253 nan nan nan nan nan nan nan nan 223 240 247 251 nan nan 255 256 257 258 258
nan nan nan nan nan nan nan nan nan nan nan 255 nan nan nan nan nan nan nan 247 nan nan nan nan nan nan nan nan nan nan nan nan nan 238 241 248 249 251 252 255 259 260
nan nan nan nan nan nan nan nan nan nan nan nan nan nan nan nan nan nan nan nan nan nan nan nan nan nan nan nan nan nan nan nan 237 239 241 241 244 248 252 254 257 258
nan nan nan nan nan nan nan nan nan nan nan nan nan nan nan nan nan nan nan nan nan nan nan nan nan nan nan nan nan nan nan nan 250 250 252 253 252 253 254 255 258 260
nan nan nan nan nan nan nan nan nan nan nan nan nan nan nan nan nan nan nan nan nan nan nan nan nan nan nan nan nan nan nan 255 258 258 259 258 260 261 261 263 264 265
nan nan nan nan nan nan nan nan nan nan nan nan nan nan nan nan nan nan nan nan nan nan nan nan nan nan nan nan nan nan nan 257 258 261 262 263 264 265 266 266 266 264
nan nan nan nan nan nan nan nan nan nan nan nan nan nan nan nan nan nan nan nan nan nan nan nan nan nan nan nan nan nan nan nan nan 258 259 261 263 264 264 265 266 268
nan nan nan nan nan nan nan nan nan nan nan nan nan nan nan nan nan nan nan nan nan nan nan nan nan nan nan nan nan nan nan nan nan nan nan nan nan nan 264 263 267 274
nan nan nan nan nan nan nan nan nan nan nan nan nan nan nan nan nan nan nan nan nan nan nan nan nan nan nan nan nan nan nan nan nan nan nan nan nan nan nan nan nan 270